Regional Weather Roundup
Issued by NWS

Home | Current Version | Previous Version | Text Only | Print | Product List | Glossary On
Versions: 1 2 3 4 5 6 7 8 9 10 11 12 13 14 15 16 17 18 19 20 21 22 23 24 25 26 27 28 29 30 31 32 33 34 35 36 37 38 39 40 41 42 43 44 45 46 47 48 49 50
000
ASUS44 KJAN 280110
RWRMS

MISSISSIPPI HOURLY WEATHER ROUNDUP
NATIONAL WEATHER SERVICE JACKSON MS
800 PM CDT WED MAY 27 2015

NOTE: "FAIR: INDICATES FEW OR NO CLOUDS BELOW 12,000 FEET WITH NO
SIGNIFICANT WEATHER AND/OR OBSTRUCTIONS TO VISIBILITY.

MSZ001>002-007>008-010>013-018>021-025>028-034>036-280200-
NORTHWEST MISSISSIPPI

CITY           SKY/WX    TMP DP  RH WIND       PRES   REMARKS
CLARKSDALE       N/A     73  73 100 CALM      30.09S
CLEVELAND      FAIR      74  72  95 CALM      30.07S
GREENWOOD      LGT RAIN  71  68  90 CALM      30.08S
GREENVILLE     PTCLDY    76  72  87 E6        30.07R
OLIVE BRANCH   MOCLDY    72  72 100 CALM      30.10S
OXFORD         FAIR      68  66  94 E5        30.12S
TUNICA         CLOUDY    72  68  88 E3        30.10R
$$

MSZ003>006-009-014>017-022>024-029>033-037>039-280200-
NORTHEAST MISSISSIPPI

CITY           SKY/WX    TMP DP  RH WIND       PRES   REMARKS
COLUMBUS AFB   LGT RAIN  70 N/A N/A E13       30.09F
CORINTH        FAIR      70  66  88 SE3       30.13R
GOLDN TRIANGLE MOCLDY    70  66  88 E5        30.07F
STARKVILLE     FAIR      70  68  94 CALM      30.10R
TUPELO         LGT RAIN  69  66  90 E6        30.12S
$$

MSZ040-058-280200-
CENTRAL MISSISSIPPI

CITY           SKY/WX    TMP DP  RH WIND       PRES   REMARKS
JACKSON INTL   PTCLDY    74  70  87 NE3       30.08R
JACKSON HAWKNS MOCLDY    75  68  78 NE6       30.09R
MERIDIAN KEY   MOCLDY    70  68  93 E5        30.13R
MERIDIAN NAS   CLOUDY    71  68  90 E3        30.13R
RAYMOND        FAIR      73  68  83 CALM      30.07S
VICKSBURG      CLEAR     74  67  78 CALM      30.07R
$$

MSZ059>079-280200-
SOUTH MISSISSIPPI

CITY           SKY/WX    TMP DP  RH WIND       PRES   REMARKS
BROOKHAVEN       N/A     73  73 100 CALM      30.11R
HATTIESBURG    MOCLDY    75  72  90 SE5       30.11R
MCCOMB         PTCLDY    72  68  87 SE5       30.10R
NATCHEZ        MOCLDY    75  68  78 NW3       30.08R
PINE BELT      MOCLDY    73  70  88 E6        30.12R
$$

MSZ080>082-280200-
COASTAL MISSISSIPPI

CITY           SKY/WX    TMP DP  RH WIND       PRES   REMARKS
BAY ST LOUIS   CLEAR     73  66  78 MISG      30.10
BILOXI         LGT RAIN  77  72  83 E6        30.10R
PASCAGOULA     PTCLDY    76  72  87 E5        30.11R
GULFPORT       CLOUDY    78  69  73 E6        30.09R
$$


USA.gov is the U.S. government's official web portal to all federal, state and local government web resources and services.